Location: Unspecified
(37.6100°N, 2.7800°W)
Time: 19:54:32
(UTC+00:00)

N. Korean satellite - Visible Passes

Search period start: 18 January 2018 00:00
Search period end: 28 January 2018 00:00
Orbit: 459 x 515 km, 97.2° (Epoch: 18 January)

Date Brightness Start Highest point End Pass type
(mag) Time Alt. Az. Time Alt. Az. Time Alt. Az.
18 Jan 8.9 06:20:38 10° NE 06:23:38 27° E 06:26:37 10° SSE visible
18 Jan 7.6 18:27:42 10° S 18:31:14 49° W 18:34:44 10° NNW visible
19 Jan 9.9 05:58:03 10° ENE 05:59:50 14° E 06:01:39 10° SE visible
19 Jan 6.5 18:03:58 10° SSE 18:07:35 75° ENE 18:11:09 10° N visible
20 Jan 10.1 19:16:08 10° WSW 19:17:36 12° W 19:19:02 10° WNW visible
21 Jan 7.1 06:42:45 10° NNE 06:46:10 60° E 06:49:35 10° S visible
21 Jan 9.1 18:50:50 10° SSW 18:53:47 24° W 18:56:44 10° NW visible
22 Jan 8.9 06:19:27 10° NE 06:22:27 27° E 06:25:26 10° SSE visible
22 Jan 7.6 18:26:34 10° S 18:30:04 50° W 18:33:32 10° NNW visible
23 Jan 9.9 05:56:54 10° ENE 05:58:39 13° E 06:00:24 10° SE visible
23 Jan 6.5 18:02:50 10° SSE 18:06:25 72° ENE 18:09:56 10° N visible
24 Jan 10.1 19:14:56 10° WSW 19:16:25 12° W 19:17:52 10° WNW visible
25 Jan 7.2 06:41:33 10° NNE 06:44:58 58° E 06:48:23 10° S visible
25 Jan 9.1 18:49:39 10° SSW 18:52:37 24° W 18:55:32 10° NW visible
26 Jan 9.0 06:18:15 10° NE 06:21:14 26° E 06:24:13 10° SSE visible
26 Jan 7.5 18:25:24 10° S 18:28:52 51° W 18:32:18 10° NNW visible
27 Jan 10.0 05:55:44 10° ENE 05:57:26 13° E 05:59:09 10° ESE visible
27 Jan 6.4 18:01:41 10° SSE 18:05:12 70° ENE 18:08:42 10° N visible
